Location: �terpigny
(49.8910°N, 2.9249°E)
Time: 02:30:21
(UTC+00:00)

Cosmos 1844 - Pass Details

Date: 24 October 2021
Orbit: 822 x 868 km, 70.9° (Epoch: 05 December)

Event Time Altitude Azimuth Distance (km) Brightness Sun altitude
Rises 18:11:22 0° 331° (NNW) 3,465 7.3 -15.4°
Reaches altitude 10° 18:13:53 10° 335° (NNW) 2,521 6.5 -15.8°
Maximum altitude 18:19:40 65° 57° (ENE) 947 3.7 -16.7°
Enters shadow 18:24:08 17° 137° (SE) 2,042 5.3 -17.5°
